RUNWAY INFORMATION
Runway Length Width Elevation Displaced
Threshold
Heading | Runway Length Width Elevation Displaced
Threshold
Heading
07 7897 ft 150 ft 6 ft 0 ft 76 | 25 7897 ft 150 ft 6 ft 0 ft 256

 AIRPORT FREQUENCIES
Type CTAF Name CTAF Frequency 123.6 MHZ
Type RDO Name MAJURO RDO Frequency 123.6 MHZ

 AIRPORT NEAR NAVIGATION AIDS
Type NDB-DME Name Majuro Frequency 316 KHZ

 METAR AND TAF INFORMATION
METAR FOR PKMJ
ADDS - METARS form results

(2152 UTC 09 May 2021)
Data provider http://aviationweather.gov/metar/data/
 
Forecast for: PKMJ (MAJURO WSO AIRPO, MH, US)
Text: PKMJ 091721Z 0918/1018 08011KT P6SM VCSH FEW020 SCT040 BKN130
Forecast period: 1800 UTC 09 May 2021 to 1800 UTC 10 May 2021
Forecast type: FROM: standard forecast or significant change
Winds: from the E (80 degrees) at 13 MPH (11 knots; 5.7 m/s)
Visibility: 6 or more miles (10+ km)
Ceiling: 13000 feet AGL
Clouds: few clouds at 2000 feet AGL
scattered clouds at 4000 feet AGL
broken clouds at 13000 feet AGL
Weather: VCSH  (showers in vicinity)



© 2013 - 2021, FlightSimLog.org - Powered by Virtual Airlines Manager